TimeEST,TemperatureF,Dew PointF,Humidity,Sea Level PressureIn,VisibilityMPH,Wind Direction,Wind SpeedMPH,Gust SpeedMPH,PrecipitationIn,Events,Conditions,WindDirDegrees,DateUTC
12:54 AM,30.9,18.0,59,29.98,10.0,NW,9.2,-,N/A,,Clear,310,2013-03-05 05:54:00
2:54 AM,28.9,19.0,67,30.00,10.0,WNW,9.2,-,N/A,,Clear,290,2013-03-05 07:54:00
3:54 AM,28.9,19.0,67,30.00,10.0,WNW,10.4,-,N/A,,Clear,290,2013-03-05 08:54:00
4:54 AM,28.0,19.9,72,30.02,10.0,West,6.9,-,N/A,,Clear,280,2013-03-05 09:54:00
5:54 AM,28.0,19.9,72,30.03,10.0,WNW,6.9,-,N/A,,Clear,290,2013-03-05 10:54:00
6:54 AM,27.0,19.9,75,30.04,10.0,West,4.6,-,N/A,,Clear,280,2013-03-05 11:54:00
8:54 AM,-9999,-9999,N/A,30.05,10.0,NW,8.1,-,N/A,,Clear,320,2013-03-05 13:54:00
9:54 AM,-9999,-9999,N/A,30.04,10.0,NNW,6.9,-,N/A,,Clear,330,2013-03-05 14:54:00
10:54 AM,-9999,-9999,N/A,30.04,10.0,Variable,5.8,-,N/A,,Clear,0,2013-03-05 15:54:00
11:54 AM,-9999,-9999,N/A,30.02,10.0,Variable,4.6,-,N/A,,Clear,0,2013-03-05 16:54:00
12:54 PM,-9999,-9999,N/A,30.01,10.0,North,8.1,-,N/A,,Clear,350,2013-03-05 17:54:00
1:54 PM,-9999,-9999,N/A,30.00,10.0,Variable,4.6,-,N/A,,Clear,0,2013-03-05 18:54:00
2:54 PM,-9999,-9999,N/A,29.97,10.0,North,5.8,-,N/A,,Clear,350,2013-03-05 19:54:00
3:54 PM,-9999,-9999,N/A,29.95,10.0,Calm,Calm,-,N/A,,Clear,0,2013-03-05 20:54:00
4:54 PM,-9999,-9999,N/A,29.96,10.0,Variable,6.9,-,N/A,,Clear,0,2013-03-05 21:54:00
5:54 PM,-9999,-9999,N/A,29.99,10.0,Calm,Calm,-,N/A,,Clear,0,2013-03-05 22:54:00
6:54 PM,-9999,-9999,N/A,30.00,10.0,SE,4.6,-,N/A,,Clear,130,2013-03-05 23:54:00
7:54 PM,-9999,-9999,N/A,30.00,10.0,ESE,5.8,-,N/A,,Clear,120,2013-03-06 00:54:00
8:54 PM,-9999,-9999,N/A,29.99,10.0,SE,3.5,-,N/A,,Clear,130,2013-03-06 01:54:00
9:54 PM,-9999,-9999,N/A,29.97,10.0,ESE,3.5,-,N/A,,Clear,110,2013-03-06 02:54:00
10:54 PM,-9999,-9999,N/A,29.94,10.0,ESE,4.6,-,N/A,,Clear,110,2013-03-06 03:54:00
11:54 PM,-9999,-9999,N/A,29.91,10.0,East,6.9,-,N/A,,Clear,80,2013-03-06 04:54:00